Location: Newark
(52.3500°N, 175.9667°E)
Time: 22:52:31
(UTC+00:00)

Altair - Pass Details

Date: 02 May 2021
Orbit: 1501 x 1683 km, 47.2° (Epoch: 06 May)

Event Time Altitude Azimuth Distance (km) Brightness Sun altitude
Rises 19:57:47 0° 283° (WNW) 4,870 9.6 28.2°
Reaches altitude 10° 20:01:08 10° 277° (W) 3,858 9.1 28.7°
Maximum altitude 20:10:09 44° 210° (SSW) 2,086 8.4 30.1°
Drops below altitude 10° 20:18:50 10° 143° (SE) 3,715 10.4 31.3°
Sets 20:22:00 0° 137° (SE) 4,675 10.9 31.8°
